This demonstration page uses our WeatherBlox Daily Observations layout. Learn more.

Left ArrowRight Arrow

Hourly Observations for November 6, 2015

Temp ( °F °C ) Dew Point ( °F °C ) Humidity (%) Winds ( mph kmh ) Pressure ( in mb ) Visibility ( mi km ) Precip ( " mm )
12:53 am 00:53 Clear 45 7.2 32 0 61 61 N 9 15 30.06 1018 10 16 0.00 0.00
1:53 am 01:53 Clear 43 6.1 32 0 65 65 N 9 15 30.07 1018 10 16 0.00 0.00
2:53 am 02:53 Clear 41 5 32 0 70 70 NNW 7 11 30.08 1019 10 16 0.00 0.00
3:53 am 03:53 Clear 40 4.4 32 0 73 73 NNW 9 15 30.08 1019 10 16 0.00 0.00
4:53 am 04:53 Clear 39 3.9 32 0 76 76 WSW 3 6 30.09 1019 10 16 0.00 0.00
5:53 am 05:53 Clear 39 3.9 31 -0.6 73 73 WNW 5 7 30.12 1020 10 16 0.00 0.00
6:53 am 06:53 Clear 39 3.9 31 -0.6 73 73 NNW 9 15 30.13 1020 10 16 0.00 0.00
7:53 am 07:53 Sunny 42 5.6 32 0 68 68 NNW 6 9 30.15 1021 10 16 0.00 0.00
8:53 am 08:53 Mostly Sunny 49 9.4 33 0.6 55 55 NNW 5 7 30.17 1022 10 16 0.00 0.00
9:53 am 09:53 Sunny 54 12.2 30 -1.1 40 40 Calm 30.16 1022 10 16 0.00 0.00
10:53 am 10:53 Sunny 58 14.4 29 -1.7 33 33 Calm 30.14 1021 10 16 0.00 0.00
11:53 am 11:53 Mostly Sunny 62 16.7 30 -1.1 30 30 VRB 3 6 30.11 1020 10 16 0.00 0.00
12:53 pm 12:53 Cloudy 64 17.8 29 -1.7 27 27 VRB 5 7 30.07 1018 10 16 0.00 0.00
1:53 pm 13:53 Cloudy 65 18.3 26 -3.3 23 23 SE 7 11 30.03 1017 10 16 0.00 0.00
2:53 pm 14:53 Mostly Cloudy 66 18.9 27 -2.8 23 23 SSE 6 9 30.01 1016 10 16 0.00 0.00
3:53 pm 15:53 Sunny 68 20 25 -3.9 20 20 SE 6 9 29.98 1015 10 16 0.00 0.00
4:53 pm 16:53 Sunny 68 20 25 -3.9 20 20 SE 9 15 29.98 1015 10 16 0.00 0.00
5:53 pm 17:53 Sunny 64 17.8 28 -2.2 26 26 SE 6 9 29.99 1016 10 16 0.00 0.00
6:53 pm 18:53 Clear 58 14.4 32 0 38 38 N 3 6 30.02 1017 10 16 0.00 0.00
7:53 pm 19:53 Clear 54 12.2 35 1.7 49 49 E 5 7 30.04 1017 10 16 0.00 0.00
8:53 pm 20:53 Clear 49 9.4 36 2.2 61 61 N 6 9 30.05 1018 10 16 0.00 0.00
9:53 pm 21:53 Clear 51 10.6 34 1.1 52 52 E 8 13 30.04 1017 10 16 0.00 0.00
10:53 pm 22:53 Clear 47 8.3 35 1.7 63 63 N 8 13 30.06 1018 10 16 0.00 0.00
11:53 pm 23:53 Clear 46 7.8 35 1.7 66 66 N 9 15 30.06 1018 10 16 0.00 0.00

Powered by AerisWeather